Year,Month,Day,Hour,Minute,Value (Times are PST for temperature in C)
2019,06,12,00,00,18.10
2019,06,12,00,01,18.00
2019,06,12,00,02,18.00
2019,06,12,00,03,18.00
2019,06,12,00,04,18.00
2019,06,12,00,05,18.00
2019,06,12,00,06,18.00
2019,06,12,00,07,18.00
2019,06,12,00,08,18.00
2019,06,12,00,09,17.90
2019,06,12,00,10,17.90
2019,06,12,00,11,17.90
2019,06,12,00,12,17.90
2019,06,12,00,13,17.90
2019,06,12,00,14,17.90
2019,06,12,00,15,17.90
2019,06,12,00,16,17.90
2019,06,12,00,17,17.80
2019,06,12,00,18,17.80
2019,06,12,00,19,17.80
2019,06,12,00,20,17.80
2019,06,12,00,21,17.80
2019,06,12,00,22,17.80
2019,06,12,00,23,17.80
2019,06,12,00,24,17.80
2019,06,12,00,25,17.70
2019,06,12,00,26,17.70
2019,06,12,00,27,17.70
2019,06,12,00,28,17.70
2019,06,12,00,29,17.70
2019,06,12,00,30,17.70
2019,06,12,00,31,17.70
2019,06,12,00,32,17.60
2019,06,12,00,33,17.60
2019,06,12,00,34,17.60
2019,06,12,00,35,17.60
2019,06,12,00,36,17.60
2019,06,12,00,37,17.60
2019,06,12,00,38,17.60
2019,06,12,00,39,17.60
2019,06,12,00,40,17.50
2019,06,12,00,41,17.50
2019,06,12,00,42,17.50
2019,06,12,00,43,17.50
2019,06,12,00,44,17.50
2019,06,12,00,45,17.50
2019,06,12,00,46,17.50
2019,06,12,00,47,17.50
2019,06,12,00,48,17.50
2019,06,12,00,49,17.50
2019,06,12,00,50,17.40
2019,06,12,00,51,17.40
2019,06,12,00,52,17.40
2019,06,12,00,53,17.40
2019,06,12,00,54,17.40
2019,06,12,00,55,17.30
2019,06,12,00,56,17.30
2019,06,12,00,57,17.30
2019,06,12,00,58,17.30
2019,06,12,00,59,17.30
2019,06,12,01,00,17.30
2019,06,12,01,01,17.20
2019,06,12,01,02,17.20
2019,06,12,01,03,17.20
2019,06,12,01,04,17.20
2019,06,12,01,05,17.20
2019,06,12,01,06,17.20
2019,06,12,01,07,17.20
2019,06,12,01,08,17.20
2019,06,12,01,09,17.20
2019,06,12,01,10,17.20
2019,06,12,01,11,17.20
2019,06,12,01,12,17.10
2019,06,12,01,13,17.10
2019,06,12,01,14,17.10
2019,06,12,01,15,17.10
2019,06,12,01,16,17.10
2019,06,12,01,17,17.10
2019,06,12,01,18,17.10
2019,06,12,01,19,17.10
2019,06,12,01,20,17.10
2019,06,12,01,21,17.10
2019,06,12,01,22,17.00
2019,06,12,01,23,17.00
2019,06,12,01,24,17.00
2019,06,12,01,25,17.00
2019,06,12,01,26,16.90
2019,06,12,01,27,16.90
2019,06,12,01,28,16.90
2019,06,12,01,29,16.90
2019,06,12,01,30,16.90
2019,06,12,01,31,16.80
2019,06,12,01,32,16.80
2019,06,12,01,33,16.80
2019,06,12,01,34,16.80
2019,06,12,01,35,16.80
2019,06,12,01,36,16.80
2019,06,12,01,37,16.80
2019,06,12,01,38,16.80
2019,06,12,01,39,16.80
2019,06,12,01,40,16.80
2019,06,12,01,41,16.80
2019,06,12,01,42,16.80
2019,06,12,01,43,16.80
2019,06,12,01,44,16.80
2019,06,12,01,45,16.70
2019,06,12,01,46,16.70
2019,06,12,01,47,16.70
2019,06,12,01,48,16.70
2019,06,12,01,49,16.70
2019,06,12,01,50,16.70
2019,06,12,01,51,16.70
2019,06,12,01,52,16.70
2019,06,12,01,53,16.70
2019,06,12,01,54,16.70
2019,06,12,01,55,16.70
2019,06,12,01,56,16.70
2019,06,12,01,57,16.70
2019,06,12,01,58,16.70
2019,06,12,01,59,16.70
2019,06,12,02,00,16.60
2019,06,12,02,01,16.60
2019,06,12,02,02,16.60
2019,06,12,02,03,16.60
2019,06,12,02,04,16.60
2019,06,12,02,05,16.60
2019,06,12,02,06,16.60
2019,06,12,02,07,16.50
2019,06,12,02,08,16.50
2019,06,12,02,09,16.50
2019,06,12,02,10,16.50
2019,06,12,02,11,16.50
2019,06,12,02,12,16.50
2019,06,12,02,13,16.50
2019,06,12,02,14,16.40
2019,06,12,02,15,16.40
2019,06,12,02,16,16.40
2019,06,12,02,17,16.40
2019,06,12,02,18,16.40
2019,06,12,02,19,16.40
2019,06,12,02,20,16.40
2019,06,12,02,21,16.40
2019,06,12,02,22,16.40
2019,06,12,02,23,16.40
2019,06,12,02,24,16.40
2019,06,12,02,25,16.40
2019,06,12,02,26,16.30
2019,06,12,02,27,16.30
2019,06,12,02,28,16.30
2019,06,12,02,29,16.30
2019,06,12,02,30,16.20
2019,06,12,02,31,16.20
2019,06,12,02,32,16.20
2019,06,12,02,33,16.20
2019,06,12,02,34,16.20
2019,06,12,02,35,16.20
2019,06,12,02,36,16.20
2019,06,12,02,37,16.20
2019,06,12,02,38,16.20
2019,06,12,02,39,16.20
2019,06,12,02,40,16.20
2019,06,12,02,41,16.20
2019,06,12,02,42,16.20
2019,06,12,02,43,16.10
2019,06,12,02,44,16.10
2019,06,12,02,45,16.10
2019,06,12,02,46,16.10
2019,06,12,02,47,16.10
2019,06,12,02,48,16.10
2019,06,12,02,49,16.10
2019,06,12,02,50,16.10
2019,06,12,02,51,16.10
2019,06,12,02,52,16.10
2019,06,12,02,53,16.10
2019,06,12,02,54,16.10
2019,06,12,02,55,16.00
2019,06,12,02,56,16.00
2019,06,12,02,57,16.00
2019,06,12,02,58,16.00
2019,06,12,02,59,16.00
2019,06,12,03,00,16.00
2019,06,12,03,01,16.00
2019,06,12,03,02,16.00
2019,06,12,03,03,16.00
2019,06,12,03,04,16.00
2019,06,12,03,05,16.00
2019,06,12,03,06,16.00
2019,06,12,03,07,16.00
2019,06,12,03,08,16.00
2019,06,12,03,09,16.00
2019,06,12,03,10,15.90
2019,06,12,03,11,16.00
2019,06,12,03,12,15.90
2019,06,12,03,13,15.90
2019,06,12,03,14,15.90
2019,06,12,03,15,15.90
2019,06,12,03,16,15.90
2019,06,12,03,17,15.90
2019,06,12,03,18,15.90
2019,06,12,03,19,15.90
2019,06,12,03,20,15.80
2019,06,12,03,21,15.90
2019,06,12,03,22,15.80
2019,06,12,03,23,15.80
2019,06,12,03,24,15.80
2019,06,12,03,25,15.80
2019,06,12,03,26,15.80
2019,06,12,03,27,15.80
2019,06,12,03,28,15.80
2019,06,12,03,29,15.80
2019,06,12,03,30,15.80
2019,06,12,03,31,15.80
2019,06,12,03,32,15.80
2019,06,12,03,33,15.70
2019,06,12,03,34,15.70
2019,06,12,03,35,15.70
2019,06,12,03,36,15.70
2019,06,12,03,37,15.70
2019,06,12,03,38,15.70
2019,06,12,03,39,15.70
2019,06,12,03,40,15.70
2019,06,12,03,41,15.70
2019,06,12,03,42,15.80
2019,06,12,03,43,15.70
2019,06,12,03,44,15.70
2019,06,12,03,45,15.70
2019,06,12,03,46,15.70
2019,06,12,03,47,15.70
2019,06,12,03,48,15.70
2019,06,12,03,49,15.70
2019,06,12,03,50,15.70
2019,06,12,03,51,15.70
2019,06,12,03,52,15.70
2019,06,12,03,53,15.70
2019,06,12,03,54,15.70
2019,06,12,03,55,15.70
2019,06,12,03,56,15.70
2019,06,12,03,57,15.70
2019,06,12,03,58,15.70
2019,06,12,03,59,15.70
2019,06,12,04,00,15.60
2019,06,12,04,01,15.60
2019,06,12,04,02,15.60
2019,06,12,04,03,15.60
2019,06,12,04,04,15.60
2019,06,12,04,05,15.60
2019,06,12,04,06,15.60
2019,06,12,04,07,15.60
2019,06,12,04,08,15.60
2019,06,12,04,09,15.60
2019,06,12,04,10,15.60
2019,06,12,04,11,15.60
2019,06,12,04,12,15.50
2019,06,12,04,13,15.50
2019,06,12,04,14,15.50
2019,06,12,04,15,15.50
2019,06,12,04,16,15.50
2019,06,12,04,17,15.50
2019,06,12,04,18,15.50
2019,06,12,04,19,15.50
2019,06,12,04,20,15.40
2019,06,12,04,21,15.50
2019,06,12,04,22,15.40
2019,06,12,04,23,15.50
2019,06,12,04,24,15.50
2019,06,12,04,25,15.50
2019,06,12,04,26,15.50
2019,06,12,04,27,15.50
2019,06,12,04,28,15.50
2019,06,12,04,29,15.50
2019,06,12,04,30,15.50
2019,06,12,04,31,15.40
2019,06,12,04,32,15.40
2019,06,12,04,33,15.40
2019,06,12,04,34,15.40
2019,06,12,04,35,15.50
2019,06,12,04,36,15.50
2019,06,12,04,37,15.40
2019,06,12,04,38,15.40
2019,06,12,04,39,15.40
2019,06,12,04,40,15.40
2019,06,12,04,41,15.40
2019,06,12,04,42,15.40
2019,06,12,04,43,15.40
2019,06,12,04,44,15.40
2019,06,12,04,45,15.40
2019,06,12,04,46,15.30
2019,06,12,04,47,15.30
2019,06,12,04,48,15.30
2019,06,12,04,49,15.30
2019,06,12,04,50,15.30
2019,06,12,04,51,15.30
2019,06,12,04,52,15.30
2019,06,12,04,53,15.30
2019,06,12,04,54,15.30
2019,06,12,04,55,15.30
2019,06,12,04,56,15.30
2019,06,12,04,57,15.20
2019,06,12,04,58,15.20
2019,06,12,04,59,15.20
2019,06,12,05,00,15.20
2019,06,12,05,01,15.20
2019,06,12,05,02,15.20
2019,06,12,05,03,15.20
2019,06,12,05,04,15.10
2019,06,12,05,05,15.10
2019,06,12,05,06,15.10
2019,06,12,05,07,15.10
2019,06,12,05,08,15.10
2019,06,12,05,09,15.10
2019,06,12,05,10,15.10
2019,06,12,05,11,15.00
2019,06,12,05,12,15.00
2019,06,12,05,13,15.00
2019,06,12,05,14,15.00
2019,06,12,05,15,15.00
2019,06,12,05,16,15.00
2019,06,12,05,17,15.00
2019,06,12,05,18,15.00
2019,06,12,05,19,15.00
2019,06,12,05,20,15.00
2019,06,12,05,21,15.00
2019,06,12,05,22,15.00
2019,06,12,05,23,15.00
2019,06,12,05,24,15.00
2019,06,12,05,25,15.00
2019,06,12,05,26,15.00
2019,06,12,05,27,15.00
2019,06,12,05,28,15.00
2019,06,12,05,29,15.10
2019,06,12,05,30,15.10
2019,06,12,05,31,15.10
2019,06,12,05,32,15.10
2019,06,12,05,33,15.20
2019,06,12,05,34,15.20
2019,06,12,05,35,15.20
2019,06,12,05,36,15.20
2019,06,12,05,37,15.20
2019,06,12,05,38,15.20
2019,06,12,05,39,15.30
2019,06,12,05,40,15.30
2019,06,12,05,41,15.30
2019,06,12,05,42,15.30
2019,06,12,05,43,15.30
2019,06,12,05,44,15.30
2019,06,12,05,45,15.30
2019,06,12,05,46,15.30
2019,06,12,05,47,15.40
2019,06,12,05,48,15.40
2019,06,12,05,49,15.40
2019,06,12,05,50,15.40
2019,06,12,05,51,15.40
2019,06,12,05,52,15.40
2019,06,12,05,53,15.40
2019,06,12,05,54,15.40
2019,06,12,05,55,15.50
2019,06,12,05,56,15.50
2019,06,12,05,57,15.50
2019,06,12,05,58,15.50
2019,06,12,05,59,15.50
2019,06,12,06,00,15.60
2019,06,12,06,01,15.60
2019,06,12,06,02,15.60
2019,06,12,06,03,15.60
2019,06,12,06,04,15.60
2019,06,12,06,05,15.60
2019,06,12,06,06,15.70
2019,06,12,06,07,15.70
2019,06,12,06,08,15.70
2019,06,12,06,09,15.70
2019,06,12,06,10,15.70
2019,06,12,06,11,15.80
2019,06,12,06,12,15.80
2019,06,12,06,13,15.80
2019,06,12,06,14,15.80
2019,06,12,06,15,15.90
2019,06,12,06,16,15.90
2019,06,12,06,17,16.00
2019,06,12,06,18,16.10
2019,06,12,06,19,16.10
2019,06,12,06,20,16.20
2019,06,12,06,21,16.30
2019,06,12,06,22,16.40
2019,06,12,06,23,16.50
2019,06,12,06,24,16.60
2019,06,12,06,25,16.60
2019,06,12,06,26,16.70
2019,06,12,06,27,16.70
2019,06,12,06,28,16.80
2019,06,12,06,29,16.80
2019,06,12,06,30,16.90
2019,06,12,06,31,16.90
2019,06,12,06,32,16.90
2019,06,12,06,33,17.00
2019,06,12,06,34,17.00
2019,06,12,06,35,17.10
2019,06,12,06,36,17.10
2019,06,12,06,37,17.20
2019,06,12,06,38,17.20
2019,06,12,06,39,17.30
2019,06,12,06,40,17.30
2019,06,12,06,41,17.30
2019,06,12,06,42,17.40
2019,06,12,06,43,17.40
2019,06,12,06,44,17.50
2019,06,12,06,45,17.60
2019,06,12,06,46,17.60
2019,06,12,06,47,17.70
2019,06,12,06,48,17.80
2019,06,12,06,49,17.80
2019,06,12,06,50,17.90
2019,06,12,06,51,18.00
2019,06,12,06,52,18.10
2019,06,12,06,53,18.10
2019,06,12,06,54,18.20
2019,06,12,06,55,18.30
2019,06,12,06,56,18.40
2019,06,12,06,57,18.40
2019,06,12,06,58,18.50
2019,06,12,06,59,18.60
2019,06,12,07,00,18.70
2019,06,12,07,01,18.80
2019,06,12,07,02,18.90
2019,06,12,07,03,19.00
2019,06,12,07,04,19.10
2019,06,12,07,05,19.10
2019,06,12,07,06,19.10
2019,06,12,07,07,19.30
2019,06,12,07,08,19.40
2019,06,12,07,09,19.60
2019,06,12,07,10,19.80
2019,06,12,07,11,19.90
2019,06,12,07,12,20.10
2019,06,12,07,13,20.20
2019,06,12,07,14,20.40
2019,06,12,07,15,20.50
2019,06,12,07,16,20.60
2019,06,12,07,17,20.80
2019,06,12,07,18,20.80
2019,06,12,07,19,21.00
2019,06,12,07,20,21.10
2019,06,12,07,21,21.10
2019,06,12,07,22,21.20
2019,06,12,07,23,21.30
2019,06,12,07,24,21.40
2019,06,12,07,25,21.50
2019,06,12,07,26,21.60
2019,06,12,07,27,21.70
2019,06,12,07,28,21.70
2019,06,12,07,29,21.70
2019,06,12,07,30,21.80
2019,06,12,07,31,21.80
2019,06,12,07,32,21.80
2019,06,12,07,33,21.80
2019,06,12,07,34,21.70
2019,06,12,07,35,21.70
2019,06,12,07,36,21.70
2019,06,12,07,37,21.70
2019,06,12,07,38,21.80
2019,06,12,07,39,21.80
2019,06,12,07,40,21.80
2019,06,12,07,41,21.80
2019,06,12,07,42,21.80
2019,06,12,07,43,21.80
2019,06,12,07,44,21.80
2019,06,12,07,45,21.90
2019,06,12,07,46,21.90
2019,06,12,07,47,21.90
2019,06,12,07,48,22.00
2019,06,12,07,49,22.00
2019,06,12,07,50,22.10
2019,06,12,07,51,22.10
2019,06,12,07,52,22.20
2019,06,12,07,53,22.20
2019,06,12,07,54,22.20
2019,06,12,07,55,22.30
2019,06,12,07,56,22.30
2019,06,12,07,57,22.30
2019,06,12,07,58,22.40
2019,06,12,07,59,22.40
2019,06,12,08,00,22.40
2019,06,12,08,01,22.40
2019,06,12,08,02,22.40
2019,06,12,08,03,22.40
2019,06,12,08,04,22.40
2019,06,12,08,05,22.40
2019,06,12,08,06,22.40
2019,06,12,08,07,22.50
2019,06,12,08,08,22.50
2019,06,12,08,09,22.60
2019,06,12,08,10,22.70
2019,06,12,08,11,22.70
2019,06,12,08,12,22.80
2019,06,12,08,13,22.80
2019,06,12,08,14,22.80
2019,06,12,08,15,22.80
2019,06,12,08,16,22.80
2019,06,12,08,17,22.90
2019,06,12,08,18,22.90
2019,06,12,08,19,22.90
2019,06,12,08,20,22.90
2019,06,12,08,21,23.00
2019,06,12,08,22,23.10
2019,06,12,08,23,23.10
2019,06,12,08,24,23.20
2019,06,12,08,25,23.20
2019,06,12,08,26,23.20
2019,06,12,08,27,23.20
2019,06,12,08,28,23.30
2019,06,12,08,29,23.30
2019,06,12,08,30,23.40
2019,06,12,08,31,23.40
2019,06,12,08,32,23.40
2019,06,12,08,33,23.40
2019,06,12,08,34,23.40
2019,06,12,08,35,23.40
2019,06,12,08,36,23.40
2019,06,12,08,37,23.40
2019,06,12,08,38,23.40
2019,06,12,08,39,23.40
2019,06,12,08,40,23.50
2019,06,12,08,41,23.50
2019,06,12,08,42,23.50
2019,06,12,08,43,23.60
2019,06,12,08,44,23.60
2019,06,12,08,45,23.60
2019,06,12,08,46,23.60
2019,06,12,08,47,23.70
2019,06,12,08,48,23.70
2019,06,12,08,49,23.80
2019,06,12,08,50,23.80
2019,06,12,08,51,23.90
2019,06,12,08,52,23.90
2019,06,12,08,53,24.00
2019,06,12,08,54,24.00
2019,06,12,08,55,24.00
2019,06,12,08,56,24.00
2019,06,12,08,57,24.00
2019,06,12,08,58,24.00
2019,06,12,08,59,24.10
2019,06,12,09,00,24.10
2019,06,12,09,01,24.10
2019,06,12,09,02,24.20
2019,06,12,09,03,24.20
2019,06,12,09,04,24.30
2019,06,12,09,05,24.30
2019,06,12,09,06,24.30
2019,06,12,09,07,24.30
2019,06,12,09,08,24.30
2019,06,12,09,09,24.30
2019,06,12,09,10,24.30
2019,06,12,09,11,24.30
2019,06,12,09,12,24.40
2019,06,12,09,13,24.40
2019,06,12,09,14,24.50
2019,06,12,09,15,24.60
2019,06,12,09,16,24.60
2019,06,12,09,17,24.60
2019,06,12,09,18,24.70
2019,06,12,09,19,24.70
2019,06,12,09,20,24.70
2019,06,12,09,21,24.70
2019,06,12,09,22,24.70
2019,06,12,09,23,24.70
2019,06,12,09,24,24.70
2019,06,12,09,25,24.70
2019,06,12,09,26,24.70
2019,06,12,09,27,24.80
2019,06,12,09,28,24.80
2019,06,12,09,29,25.00
2019,06,12,09,30,25.00
2019,06,12,09,31,25.10
2019,06,12,09,32,25.20
2019,06,12,09,33,25.20
2019,06,12,09,34,25.30
2019,06,12,09,35,25.40
2019,06,12,09,36,25.40
2019,06,12,09,37,25.40
2019,06,12,09,38,25.40
2019,06,12,09,39,25.40
2019,06,12,09,40,25.30
2019,06,12,09,41,25.30
2019,06,12,09,42,25.30
2019,06,12,09,43,25.30
2019,06,12,09,44,25.30
2019,06,12,09,45,25.40
2019,06,12,09,46,25.40
2019,06,12,09,47,25.50
2019,06,12,09,48,25.60
2019,06,12,09,49,25.60
2019,06,12,09,50,25.70
2019,06,12,09,51,25.80
2019,06,12,09,52,25.80
2019,06,12,09,53,25.80
2019,06,12,09,54,25.70
2019,06,12,09,55,25.60
2019,06,12,09,56,25.60
2019,06,12,09,57,25.60
2019,06,12,09,58,25.60
2019,06,12,09,59,25.60
2019,06,12,10,00,25.60
2019,06,12,10,01,25.70
2019,06,12,10,02,25.80
2019,06,12,10,03,25.80
2019,06,12,10,04,25.90
2019,06,12,10,05,26.00
2019,06,12,10,06,26.00
2019,06,12,10,07,26.10
2019,06,12,10,08,26.10
2019,06,12,10,09,26.10
2019,06,12,10,10,26.10
2019,06,12,10,11,26.10
2019,06,12,10,12,26.10
2019,06,12,10,13,26.00
2019,06,12,10,14,26.10
2019,06,12,10,15,26.20
2019,06,12,10,16,26.30
2019,06,12,10,17,26.30
2019,06,12,10,18,26.40
2019,06,12,10,19,26.50
2019,06,12,10,20,26.50
2019,06,12,10,21,26.60
2019,06,12,10,22,26.60
2019,06,12,10,23,26.60
2019,06,12,10,24,26.60
2019,06,12,10,25,26.60
2019,06,12,10,26,26.60
2019,06,12,10,27,26.60
2019,06,12,10,28,26.60
2019,06,12,10,29,26.60
2019,06,12,10,30,26.60
2019,06,12,10,31,26.50
2019,06,12,10,32,26.50
2019,06,12,10,33,26.50
2019,06,12,10,34,26.60
2019,06,12,10,35,26.60
2019,06,12,10,36,26.60
2019,06,12,10,37,26.60
2019,06,12,10,38,26.60
2019,06,12,10,39,26.50
2019,06,12,10,40,26.50
2019,06,12,10,41,26.40
2019,06,12,10,42,26.40
2019,06,12,10,43,26.40
2019,06,12,10,44,26.50
2019,06,12,10,45,26.50
2019,06,12,10,46,26.60
2019,06,12,10,47,26.70
2019,06,12,10,48,26.80
2019,06,12,10,49,27.00
2019,06,12,10,50,27.20
2019,06,12,10,51,27.30
2019,06,12,10,52,27.50
2019,06,12,10,53,27.60
2019,06,12,10,54,27.70
2019,06,12,10,55,27.70
2019,06,12,10,56,27.70
2019,06,12,10,57,27.50
2019,06,12,10,58,27.40
2019,06,12,10,59,27.40
2019,06,12,11,00,27.40
2019,06,12,11,01,27.40
2019,06,12,11,02,27.30
2019,06,12,11,03,27.30
2019,06,12,11,04,27.20
2019,06,12,11,05,27.20
2019,06,12,11,06,27.10
2019,06,12,11,07,27.00
2019,06,12,11,08,26.90
2019,06,12,11,09,26.80
2019,06,12,11,10,26.80
2019,06,12,11,11,26.80
2019,06,12,11,12,26.80
2019,06,12,11,13,26.80
2019,06,12,11,14,26.80
2019,06,12,11,15,26.90
2019,06,12,11,16,27.00
2019,06,12,11,17,27.00
2019,06,12,11,18,27.00
2019,06,12,11,19,27.00
2019,06,12,11,20,26.90
2019,06,12,11,21,26.80
2019,06,12,11,22,26.80
2019,06,12,11,23,26.80
2019,06,12,11,24,26.80
2019,06,12,11,25,26.80
2019,06,12,11,26,26.80
2019,06,12,11,27,26.70
2019,06,12,11,28,26.70
2019,06,12,11,29,26.60
2019,06,12,11,30,26.50
2019,06,12,11,31,26.50
2019,06,12,11,32,26.50
2019,06,12,11,33,26.50
2019,06,12,11,34,26.50
2019,06,12,11,35,26.50
2019,06,12,11,36,26.60
2019,06,12,11,37,26.60
2019,06,12,11,38,26.60
2019,06,12,11,39,26.60
2019,06,12,11,40,26.60
2019,06,12,11,41,26.70
2019,06,12,11,42,26.70
2019,06,12,11,43,26.80
2019,06,12,11,44,26.80
2019,06,12,11,45,26.90
2019,06,12,11,46,26.90
2019,06,12,11,47,26.90
2019,06,12,11,48,26.90
2019,06,12,11,49,26.90
2019,06,12,11,50,26.90
2019,06,12,11,51,26.90
2019,06,12,11,52,27.00
2019,06,12,11,53,27.00
2019,06,12,11,54,27.00
2019,06,12,11,55,26.90
2019,06,12,11,56,26.80
2019,06,12,11,57,26.80
2019,06,12,11,58,26.80
2019,06,12,11,59,26.80
2019,06,12,12,00,26.90
2019,06,12,12,01,27.00
2019,06,12,12,02,27.10
2019,06,12,12,03,27.20
2019,06,12,12,04,27.20
2019,06,12,12,05,27.30
2019,06,12,12,06,27.30
2019,06,12,12,07,27.30
2019,06,12,12,08,27.20
2019,06,12,12,09,27.20
2019,06,12,12,10,27.30
2019,06,12,12,11,27.30
2019,06,12,12,12,27.40
2019,06,12,12,13,27.50
2019,06,12,12,14,27.50
2019,06,12,12,15,27.40
2019,06,12,12,16,27.50
2019,06,12,12,17,27.50
2019,06,12,12,18,27.50
2019,06,12,12,19,27.40
2019,06,12,12,20,27.30
2019,06,12,12,21,27.30
2019,06,12,12,22,27.40
2019,06,12,12,23,27.50
2019,06,12,12,24,27.60
2019,06,12,12,25,27.70
2019,06,12,12,26,27.70
2019,06,12,12,27,27.70
2019,06,12,12,28,27.70
2019,06,12,12,29,27.70
2019,06,12,12,30,27.70
2019,06,12,12,31,27.70
2019,06,12,12,32,27.70
2019,06,12,12,33,27.80
2019,06,12,12,34,27.80
2019,06,12,12,35,27.90
2019,06,12,12,36,28.00
2019,06,12,12,37,28.10
2019,06,12,12,38,28.10
2019,06,12,12,39,28.20
2019,06,12,12,40,28.20
2019,06,12,12,41,28.30
2019,06,12,12,42,28.40
2019,06,12,12,43,28.40
2019,06,12,12,44,28.50
2019,06,12,12,45,28.50
2019,06,12,12,46,28.60
2019,06,12,12,47,28.60
2019,06,12,12,48,28.60
2019,06,12,12,49,28.40
2019,06,12,12,50,28.40
2019,06,12,12,51,28.30
2019,06,12,12,52,28.30
2019,06,12,12,53,28.20
2019,06,12,12,54,28.20
2019,06,12,12,55,28.20
2019,06,12,12,56,28.20
2019,06,12,12,57,28.20
2019,06,12,12,58,28.20
2019,06,12,12,59,28.20
2019,06,12,13,00,28.30
2019,06,12,13,01,28.30
2019,06,12,13,02,28.30
2019,06,12,13,03,28.30
2019,06,12,13,04,28.40
2019,06,12,13,05,28.40
2019,06,12,13,06,28.40
2019,06,12,13,07,28.50
2019,06,12,13,08,28.60
2019,06,12,13,09,28.60
2019,06,12,13,10,28.60
2019,06,12,13,11,28.60
2019,06,12,13,12,28.60
2019,06,12,13,13,28.60
2019,06,12,13,14,28.60
2019,06,12,13,15,28.60
2019,06,12,13,16,28.60
2019,06,12,13,17,28.50
2019,06,12,13,18,28.50
2019,06,12,13,19,28.50
2019,06,12,13,20,28.50
2019,06,12,13,21,28.40
2019,06,12,13,22,28.50
2019,06,12,13,23,28.50
2019,06,12,13,24,28.60
2019,06,12,13,25,28.60
2019,06,12,13,26,28.60
2019,06,12,13,27,28.60
2019,06,12,13,28,28.50
2019,06,12,13,29,28.40
2019,06,12,13,30,28.40
2019,06,12,13,31,28.40
2019,06,12,13,32,28.40
2019,06,12,13,33,28.40
2019,06,12,13,34,28.20
2019,06,12,13,35,27.90
2019,06,12,13,36,27.60
2019,06,12,13,37,27.30
2019,06,12,13,38,27.00
2019,06,12,13,39,26.80
2019,06,12,13,40,26.60
2019,06,12,13,41,26.50
2019,06,12,13,42,26.40
2019,06,12,13,43,26.30
2019,06,12,13,44,26.20
2019,06,12,13,45,26.00
2019,06,12,13,46,25.80
2019,06,12,13,47,25.80
2019,06,12,13,48,25.80
2019,06,12,13,49,25.80
2019,06,12,13,50,25.90
2019,06,12,13,51,25.90
2019,06,12,13,52,25.90
2019,06,12,13,53,25.90
2019,06,12,13,54,26.00
2019,06,12,13,55,26.10
2019,06,12,13,56,26.20
2019,06,12,13,57,26.30
2019,06,12,13,58,26.30
2019,06,12,13,59,26.30
2019,06,12,14,00,26.30
2019,06,12,14,01,26.30
2019,06,12,14,02,26.30
2019,06,12,14,03,26.30
2019,06,12,14,04,26.20
2019,06,12,14,05,26.20
2019,06,12,14,06,26.20
2019,06,12,14,07,26.20
2019,06,12,14,08,26.30
2019,06,12,14,09,26.40
2019,06,12,14,10,26.60
2019,06,12,14,11,26.70
2019,06,12,14,12,26.90
2019,06,12,14,13,27.10
2019,06,12,14,14,27.20
2019,06,12,14,15,27.30
2019,06,12,14,16,27.30
2019,06,12,14,17,27.30
2019,06,12,14,18,27.30
2019,06,12,14,19,27.20
2019,06,12,14,20,27.10
2019,06,12,14,21,27.10
2019,06,12,14,22,26.90
2019,06,12,14,23,26.80
2019,06,12,14,24,26.80
2019,06,12,14,25,26.80
2019,06,12,14,26,26.80
2019,06,12,14,27,26.90
2019,06,12,14,28,27.10
2019,06,12,14,29,27.20
2019,06,12,14,30,27.30
2019,06,12,14,31,27.30
2019,06,12,14,32,27.20
2019,06,12,14,33,27.20
2019,06,12,14,34,27.10
2019,06,12,14,35,27.10
2019,06,12,14,36,27.00
2019,06,12,14,37,26.90
2019,06,12,14,38,26.80
2019,06,12,14,39,26.70
2019,06,12,14,40,26.60
2019,06,12,14,41,26.60
2019,06,12,14,42,26.40
2019,06,12,14,43,26.20
2019,06,12,14,44,26.00
2019,06,12,14,45,25.80
2019,06,12,14,46,25.70
2019,06,12,14,47,25.50
2019,06,12,14,48,25.30
2019,06,12,14,49,25.10
2019,06,12,14,50,24.90
2019,06,12,14,51,24.80
2019,06,12,14,52,24.80
2019,06,12,14,53,24.70
2019,06,12,14,54,24.70
2019,06,12,14,55,24.60
2019,06,12,14,56,24.60
2019,06,12,14,57,24.60
2019,06,12,14,58,24.70
2019,06,12,14,59,24.80
2019,06,12,15,00,24.80
2019,06,12,15,01,24.90
2019,06,12,15,02,24.90
2019,06,12,15,03,24.90
2019,06,12,15,04,24.90
2019,06,12,15,05,24.90
2019,06,12,15,06,24.90
2019,06,12,15,07,24.80
2019,06,12,15,08,24.70
2019,06,12,15,09,24.70
2019,06,12,15,10,24.70
2019,06,12,15,11,24.60
2019,06,12,15,12,24.70
2019,06,12,15,13,24.70
2019,06,12,15,14,24.70
2019,06,12,15,15,24.70
2019,06,12,15,16,24.80
2019,06,12,15,17,24.80
2019,06,12,15,18,24.80
2019,06,12,15,19,24.90
2019,06,12,15,20,25.00
2019,06,12,15,21,25.00
2019,06,12,15,22,25.00
2019,06,12,15,23,25.00
2019,06,12,15,24,25.00
2019,06,12,15,25,25.00
2019,06,12,15,26,25.00
2019,06,12,15,27,24.90
2019,06,12,15,28,24.90
2019,06,12,15,29,24.80
2019,06,12,15,30,24.80
2019,06,12,15,31,24.80
2019,06,12,15,32,24.80
2019,06,12,15,33,24.80
2019,06,12,15,34,24.80
2019,06,12,15,35,24.80
2019,06,12,15,36,24.70
2019,06,12,15,37,24.50
2019,06,12,15,38,24.20
2019,06,12,15,39,23.80
2019,06,12,15,40,23.50
2019,06,12,15,41,23.20
2019,06,12,15,42,23.00
2019,06,12,15,43,22.90
2019,06,12,15,44,22.80
2019,06,12,15,45,22.80
2019,06,12,15,46,22.90
2019,06,12,15,47,22.90
2019,06,12,15,48,23.00
2019,06,12,15,49,23.00
2019,06,12,15,50,23.10
2019,06,12,15,51,23.20
2019,06,12,15,52,23.30
2019,06,12,15,53,23.30
2019,06,12,15,54,23.40
2019,06,12,15,55,23.50
2019,06,12,15,56,23.60
2019,06,12,15,57,23.70
2019,06,12,15,58,23.80
2019,06,12,15,59,23.90
2019,06,12,16,00,24.10
2019,06,12,16,01,24.20
2019,06,12,16,02,24.40
2019,06,12,16,03,24.60
2019,06,12,16,04,24.80
2019,06,12,16,05,25.10
2019,06,12,16,06,25.30
2019,06,12,16,07,25.50
2019,06,12,16,08,25.70
2019,06,12,16,09,25.90
2019,06,12,16,10,26.10
2019,06,12,16,11,26.20
2019,06,12,16,12,26.30
2019,06,12,16,13,26.40
2019,06,12,16,14,26.50
2019,06,12,16,15,26.60
2019,06,12,16,16,26.60
2019,06,12,16,17,26.60
2019,06,12,16,18,26.50
2019,06,12,16,19,26.50
2019,06,12,16,20,26.60
2019,06,12,16,21,26.60
2019,06,12,16,22,26.60
2019,06,12,16,23,26.70
2019,06,12,16,24,26.70
2019,06,12,16,25,26.60
2019,06,12,16,26,26.60
2019,06,12,16,27,26.70
2019,06,12,16,28,26.70
2019,06,12,16,29,26.70
2019,06,12,16,30,26.80
2019,06,12,16,31,26.80
2019,06,12,16,32,26.90
2019,06,12,16,33,26.90
2019,06,12,16,34,26.90
2019,06,12,16,35,27.00
2019,06,12,16,36,27.10
2019,06,12,16,37,27.20
2019,06,12,16,38,27.30
2019,06,12,16,39,27.40
2019,06,12,16,40,27.50
2019,06,12,16,41,27.70
2019,06,12,16,42,27.80
2019,06,12,16,43,27.90
2019,06,12,16,44,27.90
2019,06,12,16,45,27.80
2019,06,12,16,46,27.80
2019,06,12,16,47,27.70
2019,06,12,16,48,27.60
2019,06,12,16,49,27.50
2019,06,12,16,50,27.50
2019,06,12,16,51,27.40
2019,06,12,16,52,27.50
2019,06,12,16,53,27.50
2019,06,12,16,54,27.40
2019,06,12,16,55,27.40
2019,06,12,16,56,27.40
2019,06,12,16,57,27.40
2019,06,12,16,58,27.40
2019,06,12,16,59,27.40
2019,06,12,17,00,27.50
2019,06,12,17,01,27.50
2019,06,12,17,02,27.40
2019,06,12,17,03,27.40
2019,06,12,17,04,27.50
2019,06,12,17,05,27.60
2019,06,12,17,06,27.60
2019,06,12,17,07,27.60
2019,06,12,17,08,27.60
2019,06,12,17,09,27.60
2019,06,12,17,10,27.60
2019,06,12,17,11,27.50
2019,06,12,17,12,27.50
2019,06,12,17,13,27.50
2019,06,12,17,14,27.30
2019,06,12,17,15,27.20
2019,06,12,17,16,26.90
2019,06,12,17,17,26.80
2019,06,12,17,18,26.60
2019,06,12,17,19,26.50